EHI
42 40 40 37 27 19 16 12 5 1 0 0 0 0 0 0 0 1 2 1 0 0 0 0 0 0 0 0 0 0 0 1 2 3 4 4 4 4 3 2 1 1 0
26 27 29 26 19 15 17 15 6 1 0 0 0 0 0 0 0 0 1 0 0 0 0 0 0 0 0 0 0 0 0 0 1 3 4 5 6 4 3 3 2 2 1
8 12 15 12 9 12 18 18 10 2 1 1 0 0 0 0 0 0 0 0 0 0 0 0 0 0 0 0 1 1 0 0 1 2 4 6 7 5 4 4 3 3 2
1 4 6 3 3 8 14 15 12 7 5 3 2 1 1 0 1 1 1 0 0 0 0 0 0 0 1 2 4 5 3 1 1 2 4 6 7 5 4 4 4 3 3
0 1 1 1 1 3 5 7 9 12 13 11 6 3 3 4 5 5 2 1 0 0 0 0 0 1 2 5 10 13 12 8 4 4 8 13 16 15 8 4 3 2 2
0 0 0 0 0 0 0 1 4 9 15 15 8 4 5 7 12 13 8 3 0 0 0 1 3 7 8 9 11 15 17 14 12 17 27 35 40 35 20 7 2 1 1
0 0 0 0 0 0 0 0 0 3 6 8 6 3 4 6 11 16 12 6 2 2 2 3 8 17 19 12 8 8 10 11 15 29 45 54 56 49 31 12 2 0 0
0 0 0 0 0 0 0 0 0 0 0 1 2 1 1 2 5 9 9 7 6 7 6 4 9 19 20 12 5 3 4 5 10 22 38 48 49 40 24 9 2 0 0
0 0 0 0 0 0 0 0 0 0 0 0 0 0 0 0 1 3 5 6 8 9 6 3 6 10 11 9 7 5 4 4 5 11 22 30 27 18 9 3 1 0 0
0 0 0 0 0 0 0 0 0 0 0 0 1 1 1 1 1 2 3 4 6 6 5 4 4 4 5 9 12 9 4 3 4 7 14 15 10 4 1 0 0 0 0
0 0 0 0 0 0 0 0 0 0 0 0 1 1 1 1 2 2 1 2 5 7 10 11 9 7 8 11 13 8 3 1 2 4 6 6 3 1 0 0 0 0 0
0 0 0 0 0 0 0 0 0 0 0 0 0 0 0 1 2 3 2 2 6 15 22 23 20 17 16 18 15 7 1 0 0 1 1 1 0 0 0 0 0 0 0
0 0 0 0 0 0 0 0 0 0 0 0 0 0 0 0 1 3 4 3 7 21 33 36 37 34 33 34 22 5 0 0 0 0 0 0 0 0 0 0 0 0 0
0 0 0 0 0 0 0 0 0 0 0 0 0 0 1 1 2 3 6 7 11 21 34 44 50 51 51 41 19 3 0 0 0 0 0 0 0 0 0 0 0 0 0
0 0 0 0 0 0 0 0 1 1 1 1 0 0 1 2 3 4 8 16 22 26 36 50 56 55 49 30 9 0 0 0 0 0 0 0 0 0 0 0 0 0 0
1 1 0 0 0 0 0 0 1 2 1 1 0 0 0 2 3 3 9 20 30 36 44 53 52 44 29 13 3 0 0 0 0 0 0 0 0 0 0 0 0 0 0
6 3 1 0 0 0 0 0 1 1 1 0 0 0 0 1 2 2 6 15 26 38 45 43 37 25 11 2 0 0 0 0 0 0 0 0 0 0 0 0 0 0 0
10 6 2 0 0 0 0 0 0 0 0 0 0 0 0 1 1 1 3 8 16 28 33 26 17 10 3 0 0 0 0 0 0 0 0 0 0 0 0 0 0 0 0
10 8 4 1 0 0 0 0 0 0 0 0 0 0 0 0 0 0 1 3 8 15 18 12 5 2 0 0 0 0 0 0 0 0 0 0 0 0 0 0 0 0 0
6 8 6 3 1 0 0 0 0 0 0 0 0 0 0 0 0 0 0 1 2 5 6 5 1 0 0 0 0 0 0 0 0 0 0 0 0 0 0 0 0 0 0
2 4 5 3 1 0 0 0 0 0 0 0 0 0 0 0 0 0 0 0 0 0 1 1 0 0 0 0 0 0 0 0 0 0 0 0 0 0 0 0 0 0 0
0 1 2 2 1 0 0 0 0 0 0 0 0 0 0 0 0 0 0 0 0 0 0 0 0 0 0 0 0 0 0 0 0 0 0 0 0 0 0 0 0 0 0
0 0 0 0 0 0 0 0 0 0 0 0 0 0 0 0 0 0 0 0 0 0 0 0 0 0 0 0 0 0 0 0 0 0 0 0 0 0 0 0 0 0 0
0 0 0 0 0 0 0 0 0 0 0 0 0 0 0 0 0 0 0 0 0 0 0 0 0 0 0 0 0 0 0 0 0 0 0 0 0 0 0 0 0 0 0
0 0 0 0 0 0 0 0 0 0 0 0 0 0 0 0 0 0 0 0 0 0 0 0 0 0 0 0 0 0 0 0 0 0 0 0 0 0 0 0 0 0 0
0 0 0 0 0 0 0 0 0 0 0 0 0 0 0 0 0 0 0 0 0 0 0 0 0 0 0 0 0 0 0 0 0 0 0 0 0 0 0 0 0 0 0
Wind_Speed
7 7 6 6 8 7 5 5 7 8 9 10 11 12 12 12 12 10 6 9 11 14 16 16 16 15 15 15 15 15 15 16 17 18 19 20 20 19 19 19 18 17 16
8 8 8 7 8 7 5 5 7 7 9 10 12 14 14 13 12 11 9 9 12 14 15 15 15 14 14 15 15 15 15 16 17 18 19 20 21 20 20 20 20 19 17
9 8 8 8 7 7 7 6 6 7 11 12 15 16 14 13 12 11 11 9 10 13 15 15 15 14 14 15 15 14 14 15 16 17 18 20 21 21 21 21 21 20 19
8 6 6 6 6 6 6 6 7 9 11 12 13 13 12 12 14 11 11 10 10 11 12 16 15 13 14 14 15 14 13 14 15 16 18 19 20 21 21 21 22 21 20
5 3 3 4 5 5 6 8 8 9 11 12 11 12 12 12 12 11 11 12 12 12 12 9 14 13 12 14 14 13 14 14 15 16 18 20 20 20 20 21 22 21 21
4 5 4 4 7 7 7 7 8 9 10 11 12 12 11 12 11 12 13 13 13 15 15 14 11 12 16 15 14 13 14 14 15 17 19 20 21 21 21 21 21 21 21
3 4 6 6 6 7 8 10 10 12 11 10 11 12 13 15 14 12 12 13 14 14 14 13 11 9 8 16 17 16 17 17 17 17 18 20 21 21 22 22 22 22 21
5 5 5 7 7 7 10 10 10 11 11 10 10 12 12 12 11 13 12 13 14 12 12 12 11 10 10 9 9 15 16 17 19 19 18 19 21 20 20 21 21 22 22
5 6 7 8 7 9 8 9 10 12 12 12 12 11 11 11 10 9 11 10 11 10 10 9 11 10 11 10 10 11 15 15 18 19 18 17 18 18 18 19 20 22 23
6 7 7 7 7 8 7 9 9 10 12 12 11 12 13 13 11 9 7 9 11 10 11 9 10 10 10 10 9 7 7 10 12 11 10 10 13 16 16 18 20 21 22
5 5 6 7 7 8 8 10 10 11 10 12 12 11 12 11 13 12 11 9 9 10 10 11 9 8 9 9 7 3 5 5 4 4 3 1 3 9 13 16 19 21 22
4 4 6 7 9 9 9 10 10 12 11 12 11 11 10 10 10 11 12 11 10 8 8 7 7 7 7 6 4 9 9 7 6 5 5 4 3 1 3 9 15 17 19
5 5 7 7 8 9 11 12 12 12 12 12 12 11 10 11 11 10 10 11 10 6 6 7 6 5 5 5 8 11 9 7 6 5 5 6 6 7 6 5 3 2 1
5 6 7 8 10 11 11 11 11 12 11 12 13 13 10 11 10 11 11 10 9 8 8 7 4 5 4 6 9 8 8 8 7 7 7 7 9 10 10 10 10 11 11
5 7 8 9 10 11 11 11 10 11 11 12 12 12 11 10 10 10 10 10 10 9 8 7 4 5 6 7 8 6 7 9 8 8 8 8 10 11 11 12 12 12 12
7 8 9 10 11 11 11 10 11 9 10 10 8 10 10 9 9 10 10 10 10 8 5 4 4 7 7 8 8 8 9 11 12 10 9 11 12 12 12 12 12 12 13
9 9 9 9 10 11 10 10 10 9 8 7 7 7 7 8 7 8 9 9 9 8 6 4 5 8 9 8 7 7 8 9 10 12 12 13 14 13 13 14 14 14 14
11 11 10 9 9 9 9 10 8 6 6 5 5 4 5 4 5 5 6 8 8 8 7 9 8 8 8 7 7 8 9 10 11 15 15 15 14 13 13 14 14 14 13
13 12 11 10 9 8 8 8 7 6 5 5 4 4 5 6 4 3 2 1 2 5 7 9 9 7 7 8 9 10 11 10 12 13 14 14 13 13 13 13 12 11 10
15 14 12 10 9 9 9 7 6 5 4 4 5 5 5 5 4 4 4 5 6 7 7 8 8 7 7 9 9 10 10 9 9 10 10 11 13 14 15 14 13 11 9
15 15 13 11 10 9 8 7 6 5 3 3 3 3 4 5 6 5 6 8 9 8 7 6 6 6 7 8 8 9 10 9 8 8 9 9 9 9 11 13 14 13 12
13 14 15 13 12 9 6 3 7 5 2 0 2 2 4 7 11 12 12 11 10 9 8 5 5 7 7 7 7 8 9 9 8 6 7 8 7 9 9 10 10 10 11
12 13 14 14 13 10 11 8 6 6 4 1 2 2 5 8 10 12 13 13 12 9 5 5 9 8 8 7 6 7 5 6 7 6 6 7 7 9 9 9 9 10 10
10 10 12 14 13 12 14 11 7 8 5 3 3 4 6 8 8 9 11 12 11 9 8 9 9 9 9 7 6 7 9 9 7 4 3 5 6 7 8 8 8 8 9
11 10 10 12 13 12 15 13 11 9 7 6 5 5 7 9 6 7 10 11 12 10 13 16 14 13 12 9 5 4 7 7 7 6 2 3 4 5 5 6 8 9 8
12 11 8 8 11 11 15 15 13 9 8 8 7 6 6 8 5 2 8 10 11 10 11 11 10 9 9 7 3 0 4 5 7 6 3 1 3 4 4 3 4 4 4
Wind_Direction
254 262 265 268 273 281 275 262 273 282 282 276 271 269 269 269 265 257 258 263 249 246 247 247 246 247 243 235 232 233 232 226 221 220 221 222 223 222 222 223 223 223 224
256 258 261 263 264 266 265 258 266 275 274 272 273 272 265 260 257 260 255 255 250 246 246 243 241 244 246 241 235 235 233 230 223 220 220 222 223 223 223 223 224 223 222
266 266 270 268 267 262 250 240 243 255 261 263 262 263 265 262 257 254 258 258 259 237 227 234 234 234 239 243 243 238 231 228 224 221 221 222 221 221 221 220 223 224 222
285 281 278 278 274 264 246 232 231 241 251 257 261 259 259 260 255 253 257 256 261 265 237 220 222 225 229 238 244 242 233 228 226 225 225 223 222 222 221 219 220 222 223
309 293 286 288 283 270 255 250 239 240 252 258 261 259 259 260 259 252 251 256 260 263 265 239 206 213 224 238 240 238 236 233 230 227 227 225 224 223 222 220 219 220 221
4 342 308 316 304 287 275 266 265 249 251 256 262 265 262 256 249 245 243 241 244 247 248 252 235 214 213 223 228 235 240 239 235 230 229 228 225 223 222 220 219 219 218
351 324 313 318 295 290 291 287 279 268 257 255 259 262 258 251 244 235 234 238 240 241 244 244 248 251 223 209 215 224 235 244 245 239 234 232 227 223 221 220 218 218 218
323 313 320 298 293 286 273 270 269 273 271 261 257 265 266 258 244 238 230 228 235 238 242 243 243 241 254 256 234 217 228 240 248 249 244 237 231 225 221 219 217 217 217
318 318 305 298 293 278 273 274 275 268 269 266 254 254 264 264 266 248 229 231 233 235 240 242 238 238 238 248 258 225 218 231 245 251 249 238 230 227 221 219 219 216 215
311 314 306 298 289 285 282 274 268 270 267 266 260 248 251 269 275 269 240 227 224 224 230 227 229 229 233 242 237 252 223 232 241 248 250 240 231 227 223 222 224 220 215
296 306 304 299 293 290 295 290 284 274 266 263 265 260 251 247 247 255 259 247 223 216 217 221 231 240 237 240 245 226 155 161 137 110 85 62 239 230 225 226 229 226 220
296 304 304 301 295 296 294 286 281 273 269 270 269 265 259 252 243 238 245 247 242 226 219 227 230 231 230 229 184 118 118 120 115 107 97 86 76 70 243 233 231 230 229
309 321 312 303 299 299 295 290 282 277 274 269 264 261 258 257 255 251 250 251 250 237 217 223 225 214 199 152 129 125 114 109 103 98 95 93 91 82 67 63 79 101 191
303 313 298 295 296 296 296 293 287 280 273 269 265 263 261 258 253 246 244 247 246 236 222 213 185 185 158 142 122 127 109 96 92 89 86 87 88 85 80 75 71 68 64
273 278 288 291 292 294 295 296 287 284 277 270 267 263 256 254 251 248 244 238 234 233 219 189 162 157 139 126 130 116 102 88 87 91 97 97 93 90 88 83 77 72 69
259 268 276 285 290 293 294 290 282 278 279 278 272 268 263 257 251 244 237 230 226 232 223 170 151 138 126 121 121 106 98 90 74 85 99 101 94 87 82 79 75 69 65
246 248 260 275 285 290 292 288 289 297 293 296 297 285 277 273 267 257 246 236 224 216 203 131 122 124 123 126 129 126 117 96 82 82 96 97 92 87 81 76 72 69 65
247 244 250 264 275 280 284 285 292 301 300 306 314 322 325 312 300 284 261 239 225 208 175 146 135 133 131 128 131 127 113 100 94 88 92 93 90 85 80 76 71 67 63
251 246 243 252 260 266 272 277 288 293 292 298 308 322 334 341 354 8 4 166 170 155 145 139 135 137 139 142 136 117 109 112 107 111 105 100 96 92 87 82 76 71 67
257 245 239 240 242 247 255 261 273 282 292 307 315 319 329 345 19 68 74 89 95 101 112 123 127 137 145 156 144 132 123 117 114 110 105 113 115 105 92 83 79 77 72
269 252 239 230 226 231 237 240 251 253 276 313 330 337 17 40 56 87 102 102 101 99 99 107 127 144 152 164 147 130 119 119 115 121 126 127 125 109 99 90 76 65 62
284 262 243 229 219 219 164 205 265 237 240 309 38 53 105 107 95 89 95 99 110 121 133 145 151 138 139 133 122 131 139 134 122 118 113 102 96 86 77 76 67 65 63
298 276 252 235 222 202 166 196 238 248 222 148 87 64 87 104 122 116 106 100 87 79 105 119 115 115 114 111 130 135 120 114 104 126 130 114 107 101 96 91 90 79 69
298 290 268 246 227 197 176 191 209 231 220 183 144 119 110 117 115 123 123 109 92 68 72 91 93 90 86 79 78 96 110 113 115 105 135 127 129 124 119 109 108 94 84
291 287 282 263 236 199 177 184 202 214 204 190 166 143 132 118 107 122 124 117 105 91 73 76 79 82 71 56 34 141 157 164 140 124 131 131 143 146 131 128 135 143 128
281 279 275 270 252 217 180 182 201 213 189 177 157 135 99 116 124 151 143 132 122 117 114 107 102 107 99 91 54 17 193 183 148 129 96 187 154 170 141 118 106 125 132